This is the latest recevied weather packets stored in our database for station/object CQ0XVC-11. If no packets are shown the sender has not sent any weather packets the latest 10 day(s).
| Time | Temp. | Humidity | Pressure | Rain* | Wind** | Luminosity | Snow |
|---|---|---|---|---|---|---|---|
| 1778065788 | 17.22° C | 36% | 1000.5 hPa | 0 mm | - | - | - |
| 1778065523 | 16.67° C | 35% | 1000.4 hPa | 0 mm | - | - | - |
| 1778065486 | 16.67° C | 35% | 1000.4 hPa | 0 mm | - | - | - |
| 1778065183 | 16.67° C | 35% | 1000.7 hPa | 0 mm | - | - | - |
| 1778064882 | 17.22° C | 35% | 1000.6 hPa | 0 mm | - | - | - |
| 1778063974 | 16.67° C | 38% | 1000.8 hPa | 0 mm | - | - | - |
| 1778063673 | 16.67° C | 40% | 1000.7 hPa | 0 mm | - | - | - |
| 1778063409 | 16.11° C | 40% | 1000.8 hPa | 0 mm | - | - | - |
| 1778063370 | 16.11° C | 40% | 1000.8 hPa | 0 mm | - | - | - |
| 1778063068 | 16.11° C | 41% | 1000.7 hPa | 0 mm | - | - | - |
| 1778062799 | 16.11° C | 40% | 1000.9 hPa | 0 mm | - | - | - |
| 1778062766 | 16.11° C | 40% | 1000.9 hPa | 0 mm | - | - | - |
| 1778062528 | 16.11° C | 42% | 1000.9 hPa | 0 mm | - | - | - |
| 1778062465 | 16.11° C | 42% | 1000.9 hPa | 0 mm | - | - | - |
| 1778062161 | 15.56° C | 44% | 1000.9 hPa | 0 mm | - | - | - |
| 1778061892 | 15.56° C | 44% | 1001 hPa | 0 mm | - | - | - |
| 1778061860 | 15.56° C | 44% | 1001 hPa | 0 mm | - | - | - |
| 1778061626 | 15.56° C | 45% | 1000.9 hPa | 0 mm | - | - | - |
| 1778061557 | 15.56° C | 45% | 1000.9 hPa | 0 mm | - | - | - |
| 1778061293 | 15.56° C | 47% | 1001 hPa | 0 mm | - | - | - |
| 1778061255 | 15.56° C | 47% | 1001 hPa | 0 mm | - | - | - |
| 1778060983 | 15° C | 46% | 1000.9 hPa | 0 mm | - | - | - |
| 1778060952 | 15° C | 46% | 1000.9 hPa | 0 mm | - | - | - |
| 1778060709 | 15° C | 50% | 1001.1 hPa | 0 mm | - | - | - |
| 1778060651 | 15° C | 50% | 1001.1 hPa | 0 mm | - | - | - |
* Rain since midnight (hover to see other rain measurements)
** Current wind speed in m/s (hover to see current wind gust speed)